Погода в Славгороде

Хотите узнать прогноз погоды в Славгороде? Тогда Вам сюда: Погода в Славгороде

Поиск расширенной информации на нашем сайте:

Полезная информация:

Новости сайта



02.01.2020
Опубликован Долгосрочный прогноз погоды по городам России и ближнего зарубежья на январь 2020 года.
Карты: Прогноз на январь и февраль 2020 года, Сравнение прогнозируемой аномалии приземной температуры воздуха на январь 2020 года по разным моделям.




Погода в Славгороде - сегодня

Время (UTC), дата Ветер
(°,м/с) 
Видим.   Явления Облачность Т
(°С)
Тd
(°С)
f(%) Тe
(°С)
Pmin
(гПа)
dP
(гПа)
Po
(мм)
O2
(г/м3)
Тmin Tmax R s Состояние
почвы
09 04.06.20 010 (С) 20000 м    8/8 900 м 
[Cu med, cong]
+18.4 -3.4 22 +19  1010.7  -1  747  282           
12 04.06.20 330 (СЗ) 20000 м    8/4 600 м кучево-дожд., средняя 
[Cb cap|Ac trans]
+18.3 -4.4 21 +19  1009.7  -0.9  746  282    +18.9       
15 04.06.20 350 (С) 6-13{13}  20000 м    8/8 660 м кучево-дожд. 
[Cb cap]
+12.5 +3.4 54 +11  1010.7  0.6  747  287           
18 04.06.20 350 (С) 2{13}  20000 м    6/3 600 м кучево-дожд., средняя 
[Cb cap|Ac trans]
+8.4 +5.4 81 +8  1011.1  0.3  747  291           
21 04.06.20 330 (СЗ) 20000 м    1/0 средняя 
[Ac trans]
+6.2 +3.3 82 +5  1011.4  0.1  747  294           
00 05.06.20 320 (СЗ) 20000 м    5/3 600 м кучево-дожд., средняя 
[Cb cap|Ac trans]
+6.7 +3.9 82 +5  1011.2  -0.2  747  293  +4.1        сухая 
03 05.06.20 300 (СЗ) 20000 м  в посл. час ливневой дождь  10/10 750 м кучево-дожд. 
[Cb cap]
+7.5 +5.3 86 +5  1010.8  -0.3  747  292           
06 05.06.20 320 (СЗ) 7-12{13}  20000 м  {ливн. осадки}  10/10 800 м кучево-дожд. 
[Cb cap]
+12.5 +6.7 68 +11  1010.9  0.4  747  287           
09 05.06.20 320 (СЗ) 5{15}  20000 м  {ливн. осадки}  10/10 750 м кучево-дожд. 
[Cb cap]
+12.1 +6.9 70 +11  1012.3  1.3  748  287           
12 05.06.20 340 (С) 8-14{16}  20000 м  {ливн. осадки}  6/4 600 м кучево-дожд., средняя 
[Cb cap|Ac trans]
+15.1 +3.8 47 +14  1013.6  1.5  749  285    +15.5     
15 05.06.20 330 (СЗ) 6{14}  20000 м    10/6 600 м кучево-дожд., средняя, верхняя 
[Cb cap|Ac trans|Ci sp]
+13.2 +6.3 63 +12  1015  1.3  750  287           
18 05.06.20 340 (С) 20000 м    9/0 средняя 
[Ac trans]
+11.9 +8.2 78 +11  1016.1  0.9  751  288           
21 05.06.20 320 (СЗ) 20000 м  слаб. ливневой дождь  10/10 660 м кучево-дожд. 
[Cb cap]
+10.9 +8.9 87 +11  1016.6  0.5  751  289           
00 06.06.20 280 (З) 20000 м  {ливн. осадки}  8/0 средняя, верхняя 
[Ac trans|Ci sp]
+10.8 +9.3 90 +11  1016.3  -0.3  751  289  +10.6      влажная 
03 06.06.20 330 (СЗ) 7-12{12}  20000 м    ясно 
+17.4 +7.4 52 +17  1015.8  -0.1  751  283           
06 06.06.20 340 (С) 7-12{15}  20000 м    8/8 720 м 
[Cu med, cong]
+20.9 +6.9 40 +21  1015.9  0.2  751  280           
09 06.06.20 360 (С) 5-10{16}  20000 м    6/6 1020 м 
[Cu med, cong]
+23.7 +4 28 +24  1015.6  -0.2  751  278           
12 06.06.20 060 (СВ) 4{12}  20000 м  слаб. ливневой дождь{гроза}  10/10 630 м кучево-дожд. 
[Cb cap]
+14.3 +11.6 84 +17  1019.5  3.4  753  286    +23.9     
15 06.06.20 360 (С) 20000 м  {ливн. осадки}  8/3 600 м кучево-дожд., верхняя 
[Cb cap|Ci sp]
+14.3 +11.2 82 +18  1019.7  0.2  753  286           
18 06.06.20 340 (С) 20000 м  {ливн. осадки}  1/0 верхняя 
[Ci sp]
+11 +9.2 89 +12  1021.2  1.3  754  291           
21 06.06.20 320 (СЗ) 20000 м    1/0 верхняя 
[Ci sp]
+9.3 +8 92 +9  1021.9  0.6  755  293           
00 07.06.20 330 (СЗ) 20000 м    4/0 верхняя 
[Ci sp]
+11.3 +10.1 92 +13  1022.5  0.7  755  290  +8.9      влажная 
03 07.06.20 280 (З) 20000 м    6/0 верхняя 
[Ci sp]
+19.5 +10 54 +22  1022.6  0.5  756  282           
06 07.06.20 320 (СЗ) 20000 м    8/8 870 м 
[Cu med, cong]
+23.5 +4.2 28 +24  1021.6  -0.8  755  280           
09 07.06.20 350 (С) 6-11{11}  20000 м    8/8 840 м 
[Cu med, cong]
+25.3 +5.6 28 +25  1020.4  -1  754  277           
Время (UTC), дата Ветер
(°,м/с) 
Видим.   Явления Облачность Т
(°С)
Тd
(°С)
f(%) Тe
(°С)
Pmin
(гПа)
dP
(гПа)
Po
(мм)
O2
(г/м3)
Тmin Tmax R s Состояние
почвы

Для получения пояснительной информации подведите курсор к названию столбца.

ПОГОДА в Славгороде - архив

Всё, что Вы хотите узнать о погоде в Славгороде - удобно и подробно!

Выберите нужную дату (начиная с 1 января 2019* года) и нажмите кнопку "Найти".
Будут отображены архивные сводки погоды по пункту Славгород, начиная с указанной даты.


Отображать данные в формате CSV (для использования в таблицах Excel)


Внимание! Наш архив погоды предназначен исключительно для личного некоммерческого использования в познавательных целях. Если Вам необходимы официальные справки о состоянии погоды (для производственных, юридических, коммерческих и т.п. целей), обращайтесь в органы Росгидромета.

*Примечание: данная дата относится к архиву по метеостанциям СССР (Россия, СНГ, Балтия).
Архив по метеостанциям Зарубежной Европы и Азии (кроме Китая) хранится 10 дней, по другим регионам земного шара (Китай, Африка, Америка, Австралия, Океания) - 1 день.

Славгород - район местоположения метеостанции


Название, широта, долгота, высота метеостанции:
Славгород 53°ш. 78.6°д. 126 м над ур. моря [Российская Федерация]

Дополнительная информация

В oтличие oт бoльшинства пoгoдных сайтoв мы публикуем пoдрoбную метеoинфoрмацию в детальнoм прoфессиoнальнoм фoрмате.

Характеристики температуры и влажнoсти вoздуха измеряются на высoте 2 м в тени вдали oт зданий и деревьев.
Скoрoсть ветра измеряется на высoте 10 м (на урoвне рoста челoвека скoрoсть ветра ниже в 1.5-2 раза). Если метеoстанция нахoдится в гoрoде или в лесу, тo скoрoсть ветра занижена на 2-4 м/с пo сравнению с oткрытым местoм. Скoрoсть ветра над акватoриями крупных рек и oзёр, а также на вершинах хoлмoв на 2-5 м/с выше, чем в oбычных услoвиях.
Атмoсфернoе давление в разных тoчках местнoсти мoжет значительнo oтличаться oт давления на метеoстанции, в зависимoсти oт услoвий рельефа (при пoдъёме на 10 м давление пoнижается примернo на 1 мм рт.ст.).